Dewpoint
18 18 17 16 19 22 30 30 26 29 31 33 33 34 36 38 37 37 37 36 36 36 37 38 36 36 35 37 38 37 35 36 38 42 44 43 43 46 46 46 48 49 48 48
17 13 16 21 21 22 26 32 29 32 32 37 38 38 38 38 37 36 37 34 31 32 31 29 28 33 37 37 36 35 35 37 36 37 40 41 40 43 46 46 46 43 43 44
11 14 16 18 24 21 23 27 28 26 34 33 36 36 36 31 26 24 25 24 24 24 26 27 30 31 29 30 34 36 34 34 35 36 35 37 37 38 39 41 42 42 41 42
15 15 2 28 30 27 25 29 25 26 24 24 26 26 27 26 25 25 26 26 26 27 27 28 30 31 31 31 31 33 34 34 35 35 34 35 35 35 35 39 41 41 41 41
8 14 14 27 30 29 28 27 31 27 24 23 23 24 25 28 27 27 27 28 28 29 30 32 33 33 33 33 33 34 35 35 35 35 35 35 34 35 35 38 38 38 39 40
12 8 11 24 29 31 29 21 33 26 24 23 21 21 23 27 29 29 28 29 28 29 30 33 34 35 34 34 35 34 35 35 35 36 35 35 35 35 34 36 36 35 36 37
8 5 15 27 32 31 21 21 30 29 27 24 23 24 26 28 28 28 28 28 29 29 31 33 34 33 33 33 34 34 34 34 34 34 35 34 34 33 33 34 35 36 36 35
11 11 14 32 30 24 30 33 26 25 26 25 26 27 28 28 28 28 27 28 28 29 30 31 31 33 32 31 32 32 33 33 33 33 33 33 32 32 32 34 34 34 34 35
24 22 30 34 33 33 34 28 27 26 25 26 27 27 27 27 28 28 28 29 30 30 30 30 31 34 32 31 32 32 32 32 32 32 32 31 31 32 32 34 35 35 35 35
26 28 30 32 33 27 26 25 25 26 26 27 25 26 27 28 29 30 31 30 31 31 31 32 31 32 32 32 32 31 30 30 30 30 30 29 29 31 32 32 33 34 35 35
26 28 31 32 33 31 25 25 26 26 26 26 25 27 28 29 30 30 29 30 30 29 29 29 30 30 31 30 30 30 30 29 30 31 31 31 31 31 31 32 34 33 34 34
19 24 27 23 28 26 25 25 26 25 26 27 28 28 28 28 28 27 27 28 28 29 29 29 29 30 30 30 30 30 31 31 31 32 31 30 30 30 31 31 32 34 34 34
19 22 25 25 25 25 24 25 26 27 27 28 29 28 28 27 27 27 27 27 28 29 30 30 29 29 30 30 31 31 31 32 31 32 32 32 31 30 29 30 32 33 34 35
28 23 21 21 21 24 25 25 27 27 27 27 28 27 26 26 26 26 26 26 28 30 29 29 29 29 30 31 31 32 32 32 32 32 32 32 31 30 31 31 30 32 34 34
28 27 22 23 24 24 25 24 25 25 26 26 27 26 27 27 28 28 28 28 27 29 29 29 29 28 29 30 31 32 32 32 32 32 32 32 32 32 31 31 32 33 33 32
29 26 24 24 24 24 24 24 24 25 26 26 26 26 26 27 28 29 27 28 28 28 29 29 27 27 30 30 31 32 32 32 32 32 32 32 32 32 31 31 32 33 33 32
23 23 23 23 24 25 24 25 25 26 26 26 26 26 27 27 26 26 28 27 29 28 28 28 26 28 29 30 31 32 32 32 32 32 32 32 32 31 32 32 32 33 33 33
26 27 27 26 26 26 27 27 27 27 26 26 27 27 27 26 27 27 28 29 28 24 28 26 27 28 29 31 32 32 32 32 32 32 32 32 32 32 32 32 33 32 32 32
30 29 29 29 28 27 27 27 27 27 26 26 28 27 27 28 28 27 28 29 29 28 27 28 28 28 29 31 32 33 32 32 32 32 31 30 31 31 31 32 32 31 31 31
30 30 30 29 30 29 27 27 28 27 27 26 28 28 27 28 28 28 28 28 30 29 29 28 28 28 29 31 32 33 32 32 31 31 30 30 29 29 30 31 31 32 32 32
26 27 26 26 26 26 24 24 22 24 25 20 26 26 26 29 29 28 28 28 30 30 28 26 28 28 29 32 32 32 32 32 31 31 30 30 30 30 30 31 31 31 31 31
26 26 22 22 23 21 23 25 27 23 22 20 22 22 21 25 27 28 27 29 31 30 28 28 28 29 30 31 32 32 32 31 31 31 31 31 30 30 30 30 30 30 31 31
25 24 23 22 20 23 24 24 20 22 19 20 21 25 25 28 30 28 26 30 30 30 28 28 27 29 31 31 32 31 31 31 31 31 31 31 31 31 31 30 30 30 30 30
23 22 22 23 24 24 24 25 26 27 23 26 29 30 30 29 29 30 28 28 29 23 22 29 27 29 30 30 30 31 30 30 30 30 29 30 30 30 31 31 30 30 30 30
22 22 22 24 24 23 25 25 27 26 26 26 27 25 25 26 27 28 28 28 28 27 28 28 28 28 30 29 28 28 28 27 28 28 28 28 28 28 29 29 30 30 30 31
22 21 23 25 25 24 25 25 25 25 25 24 21 21 22 22 22 22 23 26 28 28 28 28 29 29 27 26 23 25 26 26 25 26 27 27 27 27 27 27 28 28 28 28
23 23 24 23 25 25 24 24 24 24 22 19 16 20 19 19 18 18 20 22 21 27 29 28 29 28 25 23 24 23 25 25 25 25 25 26 26 26 26 26 26 26 27 27
Lifted_Index
3 3 3 2 2 2 2 2 2 2 2 2 2 3 4 5 6 8 8 9 10 12 13 14 14 14 13 13 12 13 14 14 14 14 12 12 12 12 11 10 10 10 10 9
2 2 2 2 1 1 2 2 2 2 2 2 2 2 3 4 5 7 8 9 10 12 13 14 14 14 14 14 14 14 14 14 15 14 14 13 13 13 12 11 11 11 11 11
1 1 1 1 1 1 1 2 2 1 1 1 2 2 3 4 5 7 9 9 10 11 12 13 13 14 14 15 15 15 15 15 15 15 15 15 15 14 14 13 12 12 12 12
1 1 1 1 1 1 1 1 1 1 1 1 2 2 4 5 6 7 8 9 9 10 10 11 12 12 13 13 14 14 15 15 15 15 15 15 15 15 15 15 14 13 12 12
1 1 1 1 1 1 1 1 1 1 1 2 2 2 3 5 6 6 6 7 8 9 9 9 10 11 11 12 12 13 13 14 15 15 15 14 15 15 15 15 14 13 13 12
1 1 1 1 1 1 1 1 2 2 2 2 2 2 3 4 5 5 6 7 7 8 9 9 9 10 10 11 11 12 13 13 14 14 14 14 14 14 14 14 14 13 13 13
0 0 1 1 1 1 1 1 2 3 3 3 3 3 4 5 5 6 6 7 7 8 8 9 9 10 10 11 12 12 13 13 14 14 14 14 13 13 13 13 13 13 12 12
1 1 1 1 1 1 2 2 3 3 4 4 4 4 5 5 6 6 7 7 7 7 8 8 9 9 10 11 12 12 13 13 14 14 14 14 14 13 13 12 12 12 12 12
1 1 1 1 1 1 2 2 3 4 4 4 5 5 5 6 6 6 6 6 6 6 6 7 7 8 9 10 11 12 12 12 13 13 14 14 14 14 14 13 13 13 13 13
1 1 1 1 1 1 2 2 3 4 5 5 5 5 5 6 6 6 6 6 5 5 5 6 6 7 8 9 10 11 11 11 11 12 12 13 13 14 14 14 14 14 13 13
1 1 1 1 1 1 2 2 3 4 5 5 5 5 5 6 6 6 5 5 5 5 5 5 6 6 7 8 9 10 10 10 11 11 12 12 12 13 14 14 14 14 14 14
1 1 1 1 1 1 1 2 3 4 5 5 6 6 6 6 5 5 5 4 4 5 5 5 5 6 7 8 8 9 9 9 10 11 12 12 12 12 12 13 13 13 13 13
1 1 1 1 1 1 1 2 3 4 5 5 5 5 5 5 5 5 5 4 4 4 4 5 5 6 7 7 8 8 8 9 10 10 11 11 11 11 11 11 11 11 11 12
1 1 1 1 1 1 1 2 3 3 4 4 4 5 5 5 5 5 5 5 4 4 4 5 5 6 7 8 8 8 9 9 9 10 10 10 9 9 9 9 9 9 10 10
1 1 1 1 1 1 2 2 3 3 3 3 4 4 4 5 5 5 5 5 5 4 4 4 5 6 7 8 8 9 9 9 10 10 9 9 8 8 8 8 8 9 9 9
2 2 2 2 2 2 2 3 3 3 3 3 3 4 4 5 5 5 5 5 5 5 4 5 5 7 8 8 8 9 9 10 10 9 9 8 8 8 8 8 8 8 8 8
3 3 3 3 3 3 3 3 3 3 4 4 4 4 4 5 5 5 5 5 5 5 5 5 6 7 8 8 8 9 10 10 10 9 9 8 7 7 8 8 8 8 8 7
3 3 4 4 4 4 4 4 4 4 4 4 5 5 5 5 5 5 6 6 6 5 5 6 6 7 8 9 9 9 10 10 10 9 9 8 7 7 7 7 8 8 7 7
4 4 4 4 5 5 5 5 5 6 6 6 6 6 6 6 6 6 6 6 6 6 6 6 6 7 8 9 9 9 10 10 10 10 9 8 7 7 7 7 7 7 7 6
5 5 5 6 6 6 6 7 7 7 7 7 7 7 7 7 7 7 7 7 7 7 7 7 7 7 8 9 9 9 10 10 10 10 10 9 8 7 7 7 7 7 6 6
5 6 6 7 7 7 8 8 8 8 8 8 8 8 8 8 8 8 7 7 7 7 7 7 7 7 8 9 9 10 10 10 10 10 10 10 9 8 8 7 7 7 6 6
6 7 7 8 8 8 9 9 10 10 10 10 10 10 9 9 9 8 8 8 8 8 8 8 7 7 8 9 10 10 10 10 9 10 10 10 10 9 9 8 8 7 7 6
6 7 8 9 9 10 10 10 11 11 11 11 10 10 10 9 9 9 8 8 8 8 8 8 7 8 8 9 10 10 10 10 9 9 10 10 10 10 9 9 8 8 7 7
6 7 8 9 10 11 11 11 11 11 11 11 10 10 10 10 10 9 9 9 8 8 8 7 7 8 8 9 10 10 10 10 10 10 10 10 10 10 10 9 9 9 8 8
7 7 9 10 11 11 11 11 11 11 11 11 10 10 10 10 10 10 10 9 8 7 7 7 7 7 8 9 9 10 10 10 10 10 10 10 10 10 10 10 10 10 9 9
7 7 9 10 11 11 11 11 11 11 11 11 11 11 11 11 11 10 10 8 7 7 6 6 6 7 8 8 9 9 10 10 10 10 11 11 10 11 11 11 11 11 10 10
7 8 9 11 11 11 11 11 11 11 11 11 11 11 11 11 11 10 9 8 7 6 6 6 6 7 7 8 8 9 9 9 10 10 11 11 11 11 11 11 12 11 11 10